TimeCST,TemperatureF,Dew PointF,Humidity,Sea Level PressureIn,VisibilityMPH,Wind Direction,Wind SpeedMPH,Gust SpeedMPH,PrecipitationIn,Events,Conditions,WindDirDegrees,DateUTC
12:52 AM,10.9,5.0,77,30.03,10.0,South,13.8,-,N/A,,Overcast,180,2014-02-01 06:52:00
1:52 AM,12.0,6.1,77,30.00,10.0,South,12.7,-,N/A,,Overcast,180,2014-02-01 07:52:00
2:52 AM,12.0,7.0,80,30.00,10.0,South,8.1,-,N/A,,Mostly Cloudy,190,2014-02-01 08:52:00
3:52 AM,12.9,8.1,81,29.98,10.0,South,9.2,-,N/A,,Overcast,180,2014-02-01 09:52:00
4:52 AM,12.9,10.0,88,29.96,9.0,South,6.9,-,N/A,,Overcast,190,2014-02-01 10:52:00
5:52 AM,14.0,10.9,88,29.97,2.5,South,12.7,-,0.00,Snow,Light Snow,180,2014-02-01 11:52:00
6:05 AM,14.0,10.9,88,29.89,2.0,South,9.2,-,0.00,Snow,Light Snow,190,2014-02-01 12:05:00
6:14 AM,14.0,10.9,88,29.89,1.5,SSW,9.2,-,0.00,Snow,Light Snow,200,2014-02-01 12:14:00
6:37 AM,14.0,12.0,92,29.89,2.5,SSW,6.9,-,0.00,Snow,Light Snow,200,2014-02-01 12:37:00
6:47 AM,14.0,12.2,93,29.89,3.0,SSW,6.9,-,0.00,Snow,Light Snow,200,2014-02-01 12:47:00
6:52 AM,15.1,12.0,88,29.98,3.0,SSW,6.9,-,0.00,Snow,Light Snow,200,2014-02-01 12:52:00
7:52 AM,15.1,12.0,88,29.98,10.0,SSW,6.9,-,0.00,,Overcast,200,2014-02-01 13:52:00
8:28 AM,17.1,14.0,88,29.91,10.0,SW,9.2,-,N/A,,Overcast,230,2014-02-01 14:28:00
8:52 AM,17.1,14.0,88,30.00,9.0,WSW,8.1,-,N/A,,Overcast,250,2014-02-01 14:52:00
9:52 AM,19.0,14.0,81,30.03,9.0,NW,15.0,-,N/A,,Mostly Cloudy,310,2014-02-01 15:52:00
10:52 AM,18.0,12.0,78,30.07,8.0,NNW,15.0,-,N/A,,Mostly Cloudy,340,2014-02-01 16:52:00
11:08 AM,16.0,9.0,74,29.99,4.0,NNW,18.4,-,0.00,Snow,Light Snow,340,2014-02-01 17:08:00
11:48 AM,15.8,10.4,79,30.01,9.0,NNW,16.1,-,0.00,,Mostly Cloudy,340,2014-02-01 17:48:00
11:52 AM,16.0,10.0,77,30.08,10.0,NNW,17.3,-,0.00,,Scattered Clouds,340,2014-02-01 17:52:00
12:52 PM,17.1,9.0,71,30.07,10.0,NNW,16.1,-,N/A,,Clear,330,2014-02-01 18:52:00
1:52 PM,17.1,9.0,71,30.08,10.0,NNW,19.6,-,N/A,,Clear,330,2014-02-01 19:52:00
2:52 PM,16.0,9.0,74,30.11,9.0,NNW,20.7,-,N/A,,Clear,330,2014-02-01 20:52:00
3:43 PM,15.1,8.1,74,30.05,8.0,NNW,19.6,-,N/A,,Mostly Cloudy,330,2014-02-01 21:43:00
3:52 PM,15.1,7.0,70,30.13,10.0,NNW,18.4,-,N/A,,Scattered Clouds,330,2014-02-01 21:52:00
3:59 PM,15.1,7.0,70,30.06,9.0,NNW,16.1,-,N/A,,Mostly Cloudy,340,2014-02-01 21:59:00
4:52 PM,12.9,6.1,74,30.17,7.0,NNW,17.3,-,0.00,,Mostly Cloudy,330,2014-02-01 22:52:00
5:31 PM,10.9,5.0,77,30.10,7.0,NNW,15.0,-,0.00,,Scattered Clouds,340,2014-02-01 23:31:00
5:52 PM,10.0,3.9,76,30.19,10.0,NNW,15.0,-,0.00,,Clear,330,2014-02-01 23:52:00
6:52 PM,7.0,1.9,80,30.22,10.0,NW,12.7,-,N/A,,Clear,320,2014-02-02 00:52:00
7:52 PM,6.1,-0.0,76,30.24,10.0,NNW,12.7,-,N/A,,Clear,330,2014-02-02 01:52:00
8:52 PM,3.9,-0.9,80,30.27,10.0,NNW,10.4,-,N/A,,Clear,330,2014-02-02 02:52:00
9:52 PM,3.0,-2.9,76,30.29,10.0,NW,12.7,-,N/A,,Clear,320,2014-02-02 03:52:00
10:52 PM,1.0,-4.0,79,30.30,10.0,NW,8.1,-,N/A,,Clear,320,2014-02-02 04:52:00
11:52 PM,-4.0,-8.0,83,30.32,10.0,WNW,5.8,-,N/A,,Clear,290,2014-02-02 05:52:00